Location: Unspecified
(0.0000°N, 0.0000°E)
Time: 08:05:31
(UTC+00:00)

N. Korean satellite - Pass Details

Date: 22 September 2021
Orbit: 448 x 499 km, 97.3° (Epoch: 17 September)

Event Time Altitude Azimuth Distance (km) Brightness Sun altitude
Rises 05:05:49 0° 2° (N) 2,533 10.2 -11.7°
Reaches altitude 10° 05:07:54 10° 357° (N) 1,664 9.3 -11.2°
Maximum altitude 05:11:23 50° 281° (W) 627 6.7 -10.3°
Drops below altitude 10° 05:14:56 10° 204° (SSW) 1,692 9.1 -9.5°
Sets 05:17:04 0° 199° (SSW) 2,581 10.1 -8.9°
